| time (UTC) | temp F | wind direction | speed MPH | gust MPH | rain 1hr in | rain 24hr in | rain mn in | humidity % | barometer mb |
| 20260906163716 | 74 | 74 | 2.0 | 4.0 | 0.00 | 0.00 | 0.00 | 88 | 1017.4 |
| 20260906163434 | 74 | 74 | 2.0 | 4.0 | 0.00 | 0.00 | 0.00 | 88 | 1017.4 |
| 20260906162932 | 74 | 74 | 2.0 | 3.0 | 0.00 | 0.00 | 0.00 | 88 | 1017.6 |
| 20260906162214 | 74 | 74 | 2.0 | 3.0 | 0.00 | 0.00 | 0.00 | 88 | 1017.6 |
| 20260906161714 | 74 | 74 | 2.0 | 4.0 | 0.00 | 0.00 | 0.00 | 87 | 1017.6 |
| 20260906161204 | 75 | 72 | 2.0 | 4.0 | 0.00 | 0.00 | 0.00 | 88 | 1017.9 |
| 20260906160704 | 75 | 71 | 2.0 | 4.0 | 0.00 | 0.00 | 0.00 | 88 | 1017.9 |
| 20260906160204 | 75 | 71 | 2.0 | 7.0 | 0.00 | 0.00 | 0.00 | 89 | 1017.9 |
| 20260906155704 | 75 | 71 | 2.0 | 7.0 | 0.00 | 0.00 | 0.00 | 90 | 1018.3 |
| 20260906155202 | 76 | 68 | 2.0 | 6.0 | 0.00 | 0.00 | 0.00 | 90 | 1018.3 |
| 20260906154922 | 76 | 325 | 2.0 | 6.0 | 0.00 | 0.00 | 0.00 | 91 | 1018.3 |
| 20260906154202 | 77 | 308 | 2.0 | 4.0 | 0.00 | 0.00 | 0.00 | 91 | 1018.0 |
| 20260906154139 | 77 | 36 | 2.0 | 4.0 | 0.00 | 0.00 | 0.00 | 91 | 1018.0 |
| 20260906153201 | 77 | 266 | 2.0 | 4.0 | 0.00 | 0.00 | 0.00 | 91 | 1018.0 |
| 20260906152927 | 77 | 309 | 2.0 | 4.0 | 0.00 | 0.00 | 0.00 | 91 | 1018.0 |
| 20260906152159 | 76 | 312 | 2.0 | 4.0 | 0.00 | 0.00 | 0.00 | 91 | 1018.0 |
| 20260906151700 | 76 | 330 | 2.0 | 4.0 | 0.00 | 0.00 | 0.00 | 92 | 1018.0 |
| 20260906151159 | 76 | 356 | 2.0 | 4.0 | 0.00 | 0.00 | 0.00 | 92 | 1017.8 |
| 20260906150656 | 76 | 358 | 2.0 | 4.0 | 0.00 | 0.00 | 0.00 | 93 | 1017.8 |
| 20260906150415 | 76 | 358 | 2.0 | 4.0 | 0.00 | 0.00 | 0.00 | 94 | 1017.8 |
| 20260906145624 | 75 | 346 | 1.0 | 4.0 | 0.00 | 0.00 | 0.00 | 94 | 1017.5 |
| 20260906145340 | 75 | 302 | 2.0 | 3.0 | 0.00 | 0.00 | 0.00 | 95 | 1017.5 |
| 20260906144621 | 75 | 303 | 2.0 | 3.0 | 0.00 | 0.00 | 0.00 | 95 | 1017.5 |
| 20260906144122 | 75 | 58 | 2.0 | 4.0 | 0.00 | 0.00 | 0.00 | 95 | 1017.4 |
| 20260906143830 | 75 | 38 | 2.0 | 4.0 | 0.00 | 0.00 | 0.00 | 95 | 1017.4 |
| 20260906143104 | 75 | 59 | 2.0 | 5.0 | 0.00 | 0.00 | 0.00 | 95 | 1017.4 |
| 20260906142549 | 75 | 13 | 2.0 | 5.0 | 0.00 | 0.00 | 0.00 | 95 | 1017.3 |
| 20260906142047 | 75 | 7 | 2.0 | 4.0 | 0.00 | 0.00 | 0.00 | 96 | 1017.3 |
| 20260906142034 | 74 | 72 | 2.0 | 5.0 | 0.00 | 0.00 | 0.00 | 96 | 1017.3 |
| 20260906141305 | 74 | 73 | 2.0 | 5.0 | 0.00 | 0.00 | 0.00 | 97 | 1017.4 |
| 20260906140550 | 74 | 72 | 2.0 | 5.0 | 0.00 | 0.00 | 0.00 | 99 | 1017.4 |
| 20260906140047 | 74 | 68 | 2.0 | 5.0 | 0.00 | 0.00 | 0.00 | 99 | 1017.4 |
| 20260906135546 | 73 | 73 | 2.0 | 3.0 | 0.00 | 0.00 | 0.00 | 99 | 1017.6 |
| 20260906135038 | 73 | 75 | 2.0 | 5.0 | 0.00 | 0.00 | 0.00 | 99 | 1017.6 |
| 20260906134537 | 73 | 172 | 2.0 | 5.0 | 0.00 | 0.00 | 0.00 | 99 | 1017.6 |
| 20260906134029 | 72 | 27 | 2.0 | 4.0 | 0.00 | 0.00 | 0.00 | 99 | 1017.6 |
| 20260906133531 | 72 | 4 | 2.0 | 4.0 | 0.00 | 0.00 | 0.00 | 99 | 1017.6 |
| 20260906133029 | 72 | 346 | 2.0 | 4.0 | 0.00 | 0.00 | 0.00 | 99 | 1017.6 |
| 20260906132531 | 72 | 3 | 2.0 | 4.0 | 0.00 | 0.00 | 0.00 | 99 | 1017.8 |
| 20260906132032 | 72 | 64 | 1.0 | 4.0 | 0.00 | 0.00 | 0.00 | 99 | 1017.8 |
| 20260906131531 | 72 | 63 | 1.0 | 3.0 | 0.00 | 0.00 | 0.00 | 99 | 1017.8 |
| 20260906131024 | 71 | 60 | 1.0 | 3.0 | 0.00 | 0.00 | 0.00 | 99 | 1017.8 |
| 20260906130525 | 71 | 59 | 1.0 | 2.0 | 0.00 | 0.00 | 0.00 | 99 | 1017.8 |
| 20260906130240 | 71 | 59 | 2.0 | 3.0 | 0.00 | 0.00 | 0.00 | 99 | 1017.8 |
| 20260906125520 | 71 | 58 | 2.0 | 3.0 | 0.00 | 0.00 | 0.00 | 99 | 1017.7 |
| 20260906125011 | 71 | 57 | 2.0 | 3.0 | 0.00 | 0.00 | 0.00 | 99 | 1017.7 |
| 20260906124512 | 71 | 8 | 2.0 | 3.0 | 0.00 | 0.00 | 0.00 | 99 | 1017.7 |
| 20260906124011 | 71 | 9 | 0.0 | 3.0 | 0.00 | 0.00 | 0.00 | 99 | 1017.4 |
| 20260906123512 | 71 | 9 | 0.0 | 3.0 | 0.00 | 0.00 | 0.00 | 99 | 1017.4 |
| 20260906123012 | 71 | 9 | 0.0 | 2.0 | 0.00 | 0.00 | 0.00 | 99 | 1017.4 |
| 20260906122506 | 71 | 9 | 0.0 | 2.0 | 0.00 | 0.00 | 0.00 | 99 | 1017.1 |
| 20260906122004 | 71 | 9 | 0.0 | 0.0 | 0.00 | 0.00 | 0.00 | 99 | 1017.1 |
| 20260906121724 | 71 | 9 | 0.0 | 0.0 | 0.00 | 0.00 | 0.00 | 99 | 1017.1 |
| 20260906121001 | 70 | 9 | 0.0 | 0.0 | 0.00 | 0.00 | 0.00 | 99 | 1016.8 |
| 20260906120505 | 70 | 8 | 0.0 | 0.0 | 0.00 | 0.00 | 0.00 | 99 | 1016.8 |
| 20260906115951 | 70 | 8 | 1.0 | 0.0 | 0.00 | 0.00 | 0.00 | 99 | 1016.8 |
| 20260906115452 | 70 | 9 | 1.0 | 3.0 | 0.00 | 0.00 | 0.00 | 99 | 1016.6 |
| 20260906114949 | 70 | 8 | 0.0 | 3.0 | 0.00 | 0.00 | 0.00 | 99 | 1016.6 |
| 20260906114449 | 70 | 9 | 0.0 | 2.0 | 0.00 | 0.00 | 0.00 | 99 | 1016.6 |
| 20260906113950 | 70 | 8 | 0.0 | 1.0 | 0.00 | 0.00 | 0.00 | 99 | 1016.8 |
| 20260906113446 | 70 | 9 | 0.0 | 2.0 | 0.00 | 0.00 | 0.00 | 99 | 1016.8 |
| 20260906112947 | 70 | 8 | 0.0 | 2.0 | 0.00 | 0.00 | 0.00 | 99 | 1016.8 |
| 20260906112446 | 70 | 9 | 0.0 | 2.0 | 0.00 | 0.00 | 0.00 | 99 | 1016.5 |
| 20260906111944 | 70 | 9 | 0.0 | 2.0 | 0.00 | 0.00 | 0.00 | 99 | 1016.5 |
| 20260906111447 | 70 | 8 | 0.0 | 2.0 | 0.00 | 0.00 | 0.00 | 99 | 1016.5 |
| 20260906111208 | 70 | 9 | 0.0 | 2.0 | 0.00 | 0.00 | 0.00 | 99 | 1016.3 |
| 20260906110439 | 70 | 8 | 0.0 | 2.0 | 0.00 | 0.00 | 0.00 | 99 | 1016.3 |
| 20260906105934 | 70 | 9 | 0.0 | 2.0 | 0.00 | 0.00 | 0.00 | 99 | 1016.3 |
| 20260906105432 | 70 | 9 | 0.0 | 0.0 | 0.00 | 0.00 | 0.00 | 99 | 1016.4 |
| 20260906105417 | 70 | 8 | 1.0 | 2.0 | 0.00 | 0.00 | 0.00 | 99 | 1016.4 |
| 20260906104427 | 70 | 8 | 1.0 | 2.0 | 0.00 | 0.00 | 0.00 | 99 | 1016.4 |
| 20260906103913 | 70 | 9 | 1.0 | 2.0 | 0.00 | 0.00 | 0.00 | 99 | 1016.6 |
| 20260906103409 | 70 | 9 | 1.0 | 3.0 | 0.00 | 0.00 | 0.00 | 99 | 1016.6 |
| 20260906102906 | 70 | 9 | 1.0 | 3.0 | 0.00 | 0.00 | 0.00 | 99 | 1016.6 |
| 20260906102406 | 70 | 8 | 1.0 | 3.0 | 0.00 | 0.00 | 0.00 | 99 | 1016.2 |
| 20260906102338 | 70 | 8 | 0.0 | 2.0 | 0.00 | 0.00 | 0.00 | 99 | 1016.2 |
| 20260906101348 | 70 | 8 | 0.0 | 2.0 | 0.00 | 0.00 | 0.00 | 99 | 1016.2 |
| 20260906100847 | 70 | 8 | 1.0 | 2.0 | 0.00 | 0.00 | 0.00 | 99 | 1015.9 |
| 20260906100343 | 70 | 8 | 1.0 | 2.0 | 0.00 | 0.00 | 0.00 | 99 | 1015.9 |
| 20260906095844 | 70 | 8 | 0.0 | 3.0 | 0.00 | 0.00 | 0.00 | 99 | 1015.9 |
| 20260906095546 | 71 | 8 | 0.0 | 3.0 | 0.00 | 0.00 | 0.00 | 99 | 1015.9 |
| 20260906094825 | 71 | 8 | 1.0 | 2.0 | 0.00 | 0.00 | 0.00 | 99 | 1015.9 |
| 20260906094324 | 71 | 8 | 1.0 | 2.0 | 0.00 | 0.00 | 0.00 | 99 | 1015.9 |
| 20260906093754 | 71 | 8 | 1.0 | 3.0 | 0.00 | 0.00 | 0.00 | 99 | 1015.8 |
| 20260906093249 | 71 | 8 | 1.0 | 3.0 | 0.00 | 0.00 | 0.00 | 99 | 1015.8 |
| 20260906092749 | 71 | 8 | 1.0 | 2.0 | 0.00 | 0.00 | 0.00 | 99 | 1015.8 |
| 20260906092458 | 71 | 8 | 1.0 | 2.0 | 0.00 | 0.00 | 0.00 | 99 | 1015.6 |
| 20260906091739 | 71 | 8 | 0.0 | 2.0 | 0.00 | 0.00 | 0.00 | 99 | 1015.6 |
| 20260906091233 | 71 | 8 | 0.0 | 0.0 | 0.00 | 0.00 | 0.00 | 99 | 1015.6 |
| 20260906090729 | 71 | 8 | 0.0 | 2.0 | 0.00 | 0.00 | 0.00 | 99 | 1015.5 |
| 20260906090227 | 71 | 8 | 0.0 | 2.0 | 0.00 | 0.00 | 0.00 | 99 | 1015.5 |
| 20260906085711 | 71 | 8 | 0.0 | 2.0 | 0.00 | 0.00 | 0.00 | 99 | 1015.5 |
| 20260906085202 | 71 | 8 | 1.0 | 2.0 | 0.00 | 0.00 | 0.00 | 99 | 1015.5 |
| 20260906084644 | 71 | 8 | 1.0 | 2.0 | 0.00 | 0.00 | 0.00 | 99 | 1015.5 |
| 20260906084140 | 71 | 8 | 1.0 | 4.0 | 0.00 | 0.00 | 0.00 | 99 | 1015.6 |
| 20260906083852 | 71 | 8 | 1.0 | 4.0 | 0.00 | 0.00 | 0.00 | 99 | 1015.6 |
| 20260906083108 | 71 | 7 | 0.0 | 4.0 | 0.00 | 0.00 | 0.00 | 99 | 1015.6 |
| 20260906082608 | 71 | 8 | 0.0 | 2.0 | 0.00 | 0.00 | 0.00 | 99 | 1015.8 |
| 20260906082105 | 71 | 8 | 2.0 | 1.0 | 0.00 | 0.00 | 0.00 | 99 | 1015.8 |
| 20260906081607 | 71 | 8 | 2.0 | 2.0 | 0.00 | 0.00 | 0.00 | 99 | 1015.8 |
| 20260906081028 | 72 | 8 | 2.0 | 3.0 | 0.00 | 0.00 | 0.00 | 99 | 1015.9 |
| 20260906080522 | 72 | 8 | 2.0 | 5.0 | 0.00 | 0.00 | 0.00 | 99 | 1015.9 |
| 20260906080021 | 72 | 8 | 1.0 | 5.0 | 0.00 | 0.00 | 0.00 | 99 | 1015.9 |
| 20260906075520 | 72 | 359 | 1.0 | 4.0 | 0.00 | 0.00 | 0.00 | 99 | 1016.1 |
| 20260906075229 | 72 | 358 | 2.0 | 3.0 | 0.00 | 0.00 | 0.00 | 99 | 1016.1 |
| 20260906074509 | 72 | 358 | 2.0 | 4.0 | 0.00 | 0.00 | 0.00 | 99 | 1016.1 |
| 20260906074001 | 72 | 358 | 2.0 | 4.0 | 0.00 | 0.00 | 0.00 | 99 | 1016.1 |
| 20260906073501 | 72 | 44 | 2.0 | 4.0 | 0.00 | 0.00 | 0.00 | 99 | 1016.1 |
| 20260906072957 | 72 | 35 | 2.0 | 4.0 | 0.00 | 0.00 | 0.00 | 99 | 1016.1 |
| 20260906072457 | 72 | 11 | 2.0 | 3.0 | 0.00 | 0.00 | 0.00 | 99 | 1016.1 |
| 20260906071937 | 72 | 11 | 0.0 | 3.0 | 0.00 | 0.00 | 0.00 | 98 | 1016.1 |
| 20260906071418 | 72 | 11 | 0.0 | 2.0 | 0.00 | 0.00 | 0.00 | 98 | 1016.1 |
| 20260906071144 | 72 | 11 | 0.0 | 2.0 | 0.00 | 0.00 | 0.00 | 98 | 1016.2 |
| 20260906070415 | 72 | 11 | 0.0 | 2.0 | 0.00 | 0.00 | 0.00 | 98 | 1016.2 |
| 20260906065909 | 72 | 11 | 0.0 | 0.0 | 0.00 | 0.00 | 0.00 | 98 | 1016.2 |
| 20260906065355 | 72 | 11 | 0.0 | 0.0 | 0.00 | 0.00 | 0.00 | 98 | 1016.1 |
| 20260906064845 | 72 | 10 | 0.0 | 0.0 | 0.00 | 0.00 | 0.00 | 98 | 1016.1 |
| 20260906064334 | 73 | 11 | 0.0 | 2.0 | 0.00 | 0.00 | 0.00 | 98 | 1016.1 |
| 20260906063818 | 73 | 11 | 2.0 | 4.0 | 0.00 | 0.00 | 0.00 | 98 | 1016.3 |
| 20260906063309 | 73 | 11 | 2.0 | 4.0 | 0.00 | 0.00 | 0.00 | 98 | 1016.3 |
| 20260906063020 | 72 | 11 | 0.0 | 3.0 | 0.00 | 0.00 | 0.00 | 98 | 1016.3 |
| 20260906062521 | 72 | 11 | 0.0 | 2.0 | 0.00 | 0.00 | 0.00 | 97 | 1016.3 |
| 20260906061750 | 73 | 11 | 1.0 | 3.0 | 0.00 | 0.00 | 0.00 | 97 | 1016.3 |
| 20260906061239 | 73 | 11 | 1.0 | 3.0 | 0.00 | 0.00 | 0.00 | 97 | 1016.3 |
| 20260906060742 | 73 | 11 | 1.0 | 3.0 | 0.00 | 0.00 | 0.00 | 97 | 1016.5 |
| 20260906060231 | 73 | 11 | 1.0 | 3.0 | 0.00 | 0.00 | 0.00 | 97 | 1016.5 |
| 20260906055730 | 73 | 11 | 2.0 | 4.0 | 0.00 | 0.00 | 0.00 | 97 | 1016.5 |
| 20260906055217 | 73 | 11 | 2.0 | 4.0 | 0.00 | 0.00 | 0.00 | 98 | 1016.5 |
| 20260906054715 | 73 | 11 | 0.0 | 4.0 | 0.00 | 0.00 | 0.00 | 97 | 1016.5 |
| 20260906054214 | 73 | 12 | 0.0 | 2.0 | 0.00 | 0.00 | 0.00 | 97 | 1016.6 |
| 20260906053704 | 73 | 13 | 2.0 | 3.0 | 0.00 | 0.00 | 0.00 | 97 | 1016.6 |
| 20260906053151 | 73 | 12 | 2.0 | 4.0 | 0.00 | 0.00 | 0.00 | 97 | 1016.6 |
| 20260906052651 | 73 | 12 | 1.0 | 4.0 | 0.00 | 0.00 | 0.00 | 97 | 1016.6 |
| 20260906052149 | 73 | 12 | 1.0 | 2.0 | 0.00 | 0.00 | 0.00 | 96 | 1016.6 |
| 20260906051649 | 73 | 12 | 0.0 | 2.0 | 0.00 | 0.00 | 0.00 | 96 | 1016.6 |
| 20260906051148 | 74 | 12 | 0.0 | 0.0 | 0.00 | 0.00 | 0.00 | 96 | 1016.8 |
| 20260906050641 | 74 | 12 | 1.0 | 0.0 | 0.00 | 0.00 | 0.00 | 96 | 1016.8 |
| 20260906050352 | 74 | 12 | 1.0 | 4.0 | 0.00 | 0.00 | 0.00 | 96 | 1016.8 |
| 20260906045627 | 74 | 12 | 2.0 | 4.0 | 0.00 | 0.00 | 0.00 | 96 | 1016.9 |
| 20260906045122 | 74 | 13 | 2.0 | 4.0 | 0.00 | 0.00 | 0.00 | 96 | 1016.9 |
| 20260906044621 | 74 | 12 | 3.0 | 5.0 | 0.00 | 0.00 | 0.00 | 96 | 1016.9 |
| 20260906044121 | 74 | 5 | 3.0 | 5.0 | 0.00 | 0.00 | 0.00 | 96 | 1016.6 |
| 20260906043618 | 74 | 355 | 0.0 | 4.0 | 0.00 | 0.00 | 0.00 | 96 | 1016.6 |
| 20260906043119 | 74 | 18 | 1.0 | 3.0 | 0.00 | 0.00 | 0.00 | 96 | 1016.6 |
| 20260906042837 | 74 | 18 | 1.0 | 2.0 | 0.00 | 0.00 | 0.00 | 95 | 1016.4 |
| 20260906042053 | 74 | 18 | 3.0 | 4.0 | 0.00 | 0.00 | 0.00 | 95 | 1016.4 |
| 20260906041551 | 74 | 18 | 3.0 | 4.0 | 0.00 | 0.00 | 0.00 | 96 | 1016.4 |
| 20260906041044 | 74 | 8 | 2.0 | 4.0 | 0.00 | 0.00 | 0.00 | 96 | 1016.6 |
| 20260906040543 | 74 | 9 | 2.0 | 4.0 | 0.00 | 0.00 | 0.00 | 96 | 1016.6 |
| 20260906040041 | 74 | 3 | 2.0 | 4.0 | 0.00 | 0.00 | 0.00 | 95 | 1016.6 |
| 20260906035801 | 74 | 353 | 2.0 | 4.0 | 0.00 | 0.00 | 0.00 | 95 | 1016.5 |
| 20260906035041 | 74 | 353 | 2.0 | 4.0 | 0.00 | 0.00 | 0.00 | 95 | 1016.5 |
| 20260906034538 | 74 | 353 | 2.0 | 3.0 | 0.00 | 0.00 | 0.00 | 95 | 1016.5 |
| 20260906034039 | 75 | 67 | 0.0 | 3.0 | 0.00 | 0.00 | 0.00 | 94 | 1016.7 |
| 20260906033542 | 75 | 15 | 0.0 | 2.0 | 0.00 | 0.00 | 0.00 | 94 | 1016.7 |
| 20260906033035 | 75 | 11 | 0.0 | 2.0 | 0.00 | 0.00 | 0.00 | 93 | 1016.7 |
| 20260906032526 | 75 | 11 | 0.0 | 2.0 | 0.00 | 0.00 | 0.00 | 93 | 1017.0 |
| 20260906032025 | 75 | 11 | 1.0 | 3.0 | 0.00 | 0.00 | 0.00 | 93 | 1017.0 |
| 20260906031522 | 75 | 10 | 1.0 | 3.0 | 0.00 | 0.00 | 0.00 | 94 | 1017.0 |
| 20260906031024 | 75 | 10 | 0.0 | 3.0 | 0.00 | 0.00 | 0.00 | 93 | 1016.9 |
| 20260906030511 | 75 | 10 | 0.0 | 1.0 | 0.00 | 0.00 | 0.00 | 93 | 1016.9 |
| 20260906030011 | 75 | 11 | 0.0 | 1.0 | 0.00 | 0.00 | 0.00 | 92 | 1016.9 |
| 20260906025504 | 75 | 11 | 0.0 | 0.0 | 0.00 | 0.00 | 0.00 | 92 | 1016.8 |
| 20260906024951 | 75 | 10 | 1.0 | 2.0 | 0.00 | 0.00 | 0.00 | 92 | 1016.8 |
| 20260906024451 | 76 | 11 | 1.0 | 2.0 | 0.00 | 0.00 | 0.00 | 92 | 1016.8 |
| 20260906023921 | 76 | 10 | 1.0 | 2.0 | 0.00 | 0.00 | 0.00 | 91 | 1016.8 |
| 20260906023422 | 76 | 11 | 1.0 | 2.0 | 0.00 | 0.00 | 0.00 | 91 | 1016.8 |
| 20260906022910 | 76 | 10 | 1.0 | 3.0 | 0.00 | 0.00 | 0.00 | 90 | 1016.8 |
| 20260906022618 | 76 | 10 | 1.0 | 3.0 | 0.00 | 0.00 | 0.00 | 89 | 1016.8 |
| 20260906021858 | 77 | 11 | 1.0 | 2.0 | 0.00 | 0.00 | 0.00 | 89 | 1016.8 |
| 20260906021539 | 77 | 10 | 1.0 | 2.0 | 0.00 | 0.00 | 0.00 | 88 | 1016.8 |
| 20260906021034 | 77 | 10 | 2.0 | 2.0 | 0.00 | 0.00 | 0.00 | 88 | 1016.7 |
| 20260906020519 | 77 | 11 | 2.0 | 3.0 | 0.00 | 0.00 | 0.00 | 88 | 1016.7 |
| 20260906020019 | 77 | 11 | 3.0 | 4.0 | 0.00 | 0.00 | 0.00 | 87 | 1016.7 |
| 20260906015505 | 77 | 10 | 3.0 | 4.0 | 0.00 | 0.00 | 0.00 | 87 | 1016.6 |
| 20260906015004 | 77 | 10 | 2.0 | 5.0 | 0.00 | 0.00 | 0.00 | 88 | 1016.6 |
| 20260906014727 | 77 | 346 | 2.0 | 5.0 | 0.00 | 0.00 | 0.00 | 88 | 1016.6 |
| 20260906014002 | 78 | 23 | 1.0 | 4.0 | 0.00 | 0.00 | 0.00 | 87 | 1016.4 |
| 20260906013501 | 78 | 342 | 1.0 | 3.0 | 0.00 | 0.00 | 0.00 | 87 | 1016.4 |
| 20260906013005 | 78 | 343 | 0.0 | 2.0 | 0.00 | 0.00 | 0.00 | 87 | 1016.4 |
| 20260906012451 | 78 | 342 | 0.0 | 2.0 | 0.00 | 0.00 | 0.00 | 86 | 1016.2 |
| 20260906011949 | 78 | 342 | 0.0 | 2.0 | 0.00 | 0.00 | 0.00 | 85 | 1016.2 |
| 20260906011439 | 78 | 343 | 0.0 | 2.0 | 0.00 | 0.00 | 0.00 | 85 | 1016.2 |
| 20260906011155 | 78 | 343 | 2.0 | 2.0 | 0.00 | 0.00 | 0.00 | 85 | 1016.2 |
| 20260906010429 | 78 | 343 | 2.0 | 4.0 | 0.00 | 0.00 | 0.00 | 84 | 1016.2 |
| 20260906005929 | 79 | 342 | 1.0 | 4.0 | 0.00 | 0.00 | 0.00 | 84 | 1016.2 |
| 20260906005910 | 79 | 342 | 1.0 | 3.0 | 0.00 | 0.00 | 0.00 | 83 | 1015.9 |
| 20260906004906 | 79 | 342 | 2.0 | 3.0 | 0.00 | 0.00 | 0.00 | 83 | 1015.9 |
| 20260906004408 | 79 | 343 | 2.0 | 3.0 | 0.00 | 0.00 | 0.00 | 83 | 1015.9 |
| 20260906003901 | 79 | 342 | 0.0 | 3.0 | 0.00 | 0.00 | 0.00 | 83 | 1015.8 |
| 20260906003623 | 79 | 343 | 0.0 | 3.0 | 0.00 | 0.00 | 0.00 | 83 | 1015.8 |
| 20260906002900 | 80 | 343 | 2.0 | 4.0 | 0.00 | 0.00 | 0.00 | 83 | 1015.8 |
| 20260906002617 | 80 | 342 | 2.0 | 4.0 | 0.00 | 0.00 | 0.00 | 82 | 1015.7 |
| 20260906002341 | 80 | 342 | 2.0 | 4.0 | 0.00 | 0.00 | 0.00 | 82 | 1015.7 |
| 20260906001402 | 80 | 342 | 2.0 | 4.0 | 0.00 | 0.00 | 0.00 | 81 | 1015.7 |
| 20260906000902 | 81 | 202 | 1.0 | 4.0 | 0.00 | 0.00 | 0.00 | 78 | 1015.7 |
| 20260906000403 | 82 | 202 | 1.0 | 3.0 | 0.00 | 0.00 | 0.00 | 76 | 1015.7 |
| 20260905235841 | 82 | 202 | 0.0 | 2.0 | 0.00 | 0.00 | 0.00 | 75 | 1015.7 |
| 20260905235340 | 83 | 202 | 0.0 | 2.0 | 0.00 | 0.00 | 0.00 | 74 | 1015.7 |
| 20260905234819 | 83 | 202 | 0.0 | 2.0 | 0.00 | 0.00 | 0.00 | 73 | 1015.7 |
| 20260905234319 | 84 | 202 | 0.0 | 2.0 | 0.00 | 0.00 | 0.00 | 71 | 1015.7 |
| 20260905233814 | 85 | 202 | 1.0 | 2.0 | 0.00 | 0.00 | 0.00 | 71 | 1015.7 |
| 20260905232753 | 85 | 202 | 2.0 | 4.0 | 0.00 | 0.00 | 0.00 | 69 | 1015.7 |
| 20260905232255 | 86 | 202 | 2.0 | 5.0 | 0.00 | 0.00 | 0.00 | 68 | 1015.6 |
| 20260905231750 | 86 | 202 | 2.0 | 5.0 | 0.00 | 0.00 | 0.00 | 66 | 1015.6 |
| 20260905231246 | 86 | 209 | 2.0 | 5.0 | 0.00 | 0.00 | 0.00 | 66 | 1015.6 |
| 20260905230747 | 86 | 210 | 2.0 | 5.0 | 0.00 | 0.00 | 0.00 | 66 | 1015.7 |
| 20260905230244 | 87 | 198 | 2.0 | 5.0 | 0.00 | 0.00 | 0.00 | 65 | 1015.7 |
| 20260905225734 | 87 | 202 | 2.0 | 5.0 | 0.00 | 0.00 | 0.00 | 64 | 1015.7 |
| 20260905225458 | 87 | 204 | 2.0 | 4.0 | 0.00 | 0.00 | 0.00 | 64 | 1015.9 |
| 20260905224723 | 87 | 204 | 3.0 | 5.0 | 0.00 | 0.00 | 0.00 | 64 | 1015.9 |
| 20260905224223 | 87 | 206 | 3.0 | 5.0 | 0.00 | 0.00 | 0.00 | 66 | 1016.3 |
| 20260905223721 | 87 | 212 | 3.0 | 5.0 | 0.00 | 0.00 | 0.00 | 65 | 1016.3 |
| 20260905223221 | 87 | 196 | 3.0 | 6.0 | 0.00 | 0.00 | 0.00 | 64 | 1016.3 |
| 20260905222719 | 87 | 205 | 3.0 | 6.0 | 0.00 | 0.00 | 0.00 | 63 | 1016.3 |
| 20260905222222 | 87 | 196 | 3.0 | 6.0 | 0.00 | 0.00 | 0.00 | 63 | 1016.3 |
| 20260905221719 | 87 | 251 | 3.0 | 6.0 | 0.00 | 0.00 | 0.00 | 63 | 1016.3 |
| 20260905221453 | 87 | 255 | 3.0 | 6.0 | 0.00 | 0.00 | 0.00 | 63 | 1016.3 |
| 20260905220947 | 87 | 208 | 3.0 | 5.0 | 0.00 | 0.00 | 0.00 | 63 | 1016.3 |
| 20260905220220 | 87 | 257 | 3.0 | 5.0 | 0.00 | 0.00 | 0.00 | 64 | 1016.3 |
| 20260905215933 | 87 | 256 | 3.0 | 6.0 | 0.00 | 0.00 | 0.00 | 63 | 1016.2 |
| 20260905215204 | 87 | 228 | 3.0 | 6.0 | 0.00 | 0.00 | 0.00 | 63 | 1016.2 |
| 20260905214703 | 87 | 205 | 4.0 | 6.0 | 0.00 | 0.00 | 0.00 | 63 | 1016.2 |
| 20260905214200 | 87 | 210 | 4.0 | 7.0 | 0.00 | 0.00 | 0.00 | 64 | 1016.1 |
| 20260905213659 | 87 | 208 | 3.0 | 7.0 | 0.00 | 0.00 | 0.00 | 61 | 1016.1 |
| 20260905213200 | 87 | 213 | 3.0 | 6.0 | 0.00 | 0.00 | 0.00 | 63 | 1016.1 |
| 20260905212658 | 87 | 258 | 4.0 | 6.0 | 0.00 | 0.00 | 0.00 | 63 | 1015.9 |
| 20260905212158 | 87 | 199 | 4.0 | 7.0 | 0.00 | 0.00 | 0.00 | 63 | 1015.9 |
| 20260905211700 | 87 | 191 | 4.0 | 7.0 | 0.00 | 0.00 | 0.00 | 61 | 1015.9 |
| 20260905211419 | 87 | 208 | 4.0 | 7.0 | 0.00 | 0.00 | 0.00 | 65 | 1015.8 |
| 20260905210659 | 87 | 218 | 3.0 | 7.0 | 0.00 | 0.00 | 0.00 | 63 | 1015.8 |
| 20260905210422 | 87 | 223 | 3.0 | 5.0 | 0.00 | 0.00 | 0.00 | 62 | 1015.8 |
| 20260905205658 | 87 | 236 | 4.0 | 6.0 | 0.00 | 0.00 | 0.00 | 63 | 1016.2 |
| 20260905205158 | 86 | 249 | 4.0 | 6.0 | 0.00 | 0.00 | 0.00 | 65 | 1016.2 |
| 20260905204659 | 86 | 209 | 4.0 | 6.0 | 0.00 | 0.00 | 0.00 | 65 | 1016.2 |
| 20260905204159 | 86 | 189 | 4.0 | 7.0 | 0.00 | 0.00 | 0.00 | 66 | 1016.1 |
| 20260905203653 | 86 | 226 | 3.0 | 7.0 | 0.00 | 0.00 | 0.00 | 65 | 1016.1 |
| 20260905203153 | 86 | 194 | 3.0 | 6.0 | 0.00 | 0.00 | 0.00 | 65 | 1016.1 |
| 20260905202653 | 86 | 205 | 4.0 | 8.0 | 0.00 | 0.00 | 0.00 | 66 | 1016.2 |
| 20260905202416 | 86 | 202 | 4.0 | 9.0 | 0.00 | 0.00 | 0.00 | 68 | 1016.2 |
| 20260905201653 | 86 | 199 | 3.0 | 9.0 | 0.00 | 0.00 | 0.00 | 66 | 1016.2 |
| 20260905201153 | 85 | 173 | 3.0 | 5.0 | 0.00 | 0.00 | 0.00 | 66 | 1016.5 |
| 20260905200650 | 85 | 187 | 4.0 | 6.0 | 0.00 | 0.00 | 0.00 | 69 | 1016.5 |
| 20260905200148 | 85 | 181 | 4.0 | 6.0 | 0.00 | 0.00 | 0.00 | 68 | 1016.5 |
| 20260905195638 | 85 | 179 | 3.0 | 6.0 | 0.00 | 0.00 | 0.00 | 68 | 1016.5 |
| 20260905195138 | 85 | 199 | 3.0 | 5.0 | 0.00 | 0.00 | 0.00 | 67 | 1016.5 |
| 20260905194638 | 84 | 222 | 3.0 | 7.0 | 0.00 | 0.00 | 0.00 | 70 | 1016.5 |
| 20260905194359 | 84 | 205 | 3.0 | 7.0 | 0.00 | 0.00 | 0.00 | 67 | 1016.8 |
| 20260905193639 | 84 | 215 | 3.0 | 5.0 | 0.00 | 0.00 | 0.00 | 67 | 1016.8 |
| 20260905193138 | 82 | 73 | 2.0 | 2.0 | 0.00 | 0.00 | 0.00 | 68 | 1016.8 |
| 20260905192638 | 82 | 73 | 2.0 | 3.0 | 0.00 | 0.00 | 0.00 | 68 | 1016.9 |
| 20260905192117 | 82 | 73 | 2.0 | 3.0 | 0.00 | 0.00 | 0.00 | 68 | 1016.9 |
| 20260905191609 | 82 | 75 | 2.0 | 5.0 | 0.00 | 0.00 | 0.00 | 69 | 1016.9 |
| 20260905191109 | 82 | 84 | 2.0 | 5.0 | 0.00 | 0.00 | 0.00 | 68 | 1017.3 |
| 20260905190608 | 81 | 191 | 2.0 | 4.0 | 0.00 | 0.00 | 0.00 | 71 | 1017.3 |
| 20260905190108 | 81 | 339 | 2.0 | 5.0 | 0.00 | 0.00 | 0.00 | 71 | 1017.3 |
| 20260905185608 | 81 | 7 | 2.0 | 5.0 | 0.00 | 0.00 | 0.00 | 72 | 1017.7 |
| 20260905185108 | 80 | 1 | 2.0 | 4.0 | 0.00 | 0.00 | 0.00 | 76 | 1017.7 |
| 20260905184609 | 80 | 74 | 2.0 | 5.0 | 0.00 | 0.00 | 0.00 | 75 | 1017.7 |
| 20260905184335 | 80 | 72 | 2.0 | 5.0 | 0.00 | 0.00 | 0.00 | 77 | 1018.0 |
| 20260905183609 | 79 | 77 | 2.0 | 4.0 | 0.00 | 0.00 | 0.00 | 77 | 1018.0 |
| 20260905183108 | 78 | 205 | 2.0 | 4.0 | 0.00 | 0.00 | 0.00 | 80 | 1018.0 |
| 20260905182608 | 78 | 64 | 2.0 | 4.0 | 0.00 | 0.00 | 0.00 | 83 | 1018.5 |
| 20260905182058 | 77 | 65 | 2.0 | 4.0 | 0.00 | 0.00 | 0.00 | 84 | 1018.5 |
| 20260905181601 | 77 | 40 | 2.0 | 4.0 | 0.00 | 0.00 | 0.00 | 85 | 1018.5 |
| 20260905181058 | 76 | 70 | 2.0 | 5.0 | 0.00 | 0.00 | 0.00 | 87 | 1018.7 |
| 20260905180558 | 76 | 76 | 2.0 | 5.0 | 0.00 | 0.00 | 0.00 | 88 | 1018.7 |
| 20260905180059 | 75 | 55 | 1.0 | 5.0 | 0.00 | 0.00 | 0.00 | 88 | 1018.7 |
| 20260905175558 | 74 | 69 | 1.0 | 4.0 | 0.00 | 0.00 | 0.00 | 92 | 1019.2 |
| 20260905175058 | 74 | 76 | 2.0 | 3.0 | 0.00 | 0.00 | 0.00 | 94 | 1019.2 |
| 20260905174558 | 74 | 78 | 2.0 | 3.0 | 0.00 | 0.00 | 0.00 | 96 | 1019.2 |
| 20260905174046 | 73 | 72 | 0.0 | 3.0 | 0.00 | 0.00 | 0.00 | 97 | 1019.6 |
| 20260905173546 | 73 | 330 | 0.0 | 3.0 | 0.00 | 0.00 | 0.00 | 97 | 1019.6 |
| 20260905173044 | 73 | 10 | 2.0 | 2.0 | 0.00 | 0.00 | 0.00 | 98 | 1019.6 |
| 20260905172543 | 73 | 10 | 2.0 | 3.0 | 0.00 | 0.00 | 0.00 | 97 | 1019.7 |
| 20260905172020 | 73 | 59 | 0.0 | 3.0 | 0.00 | 0.00 | 0.00 | 98 | 1019.7 |
| 20260905171518 | 73 | 100 | 0.0 | 2.0 | 0.00 | 0.00 | 0.00 | 98 | 1019.7 |
| 20260905171240 | 73 | 9 | 1.0 | 2.0 | 0.00 | 0.00 | 0.00 | 98 | 1019.2 |
| 20260905170518 | 73 | 9 | 1.0 | 2.0 | 0.00 | 0.00 | 0.00 | 97 | 1019.2 |
| 20260905170015 | 72 | 10 | 2.0 | 2.0 | 0.00 | 0.00 | 0.00 | 97 | 1019.2 |
| 20260905165515 | 72 | 197 | 2.0 | 2.0 | 0.00 | 0.00 | 0.00 | 96 | 1019.3 |
| 20260905164935 | 72 | 197 | 2.0 | 2.0 | 0.00 | 0.00 | 0.00 | 96 | 1019.3 |
| 20260905164427 | 72 | 197 | 2.0 | 3.0 | 0.00 | 0.00 | 0.00 | 96 | 1019.3 |
| 20260905163921 | 72 | 197 | 2.0 | 3.0 | 0.00 | 0.00 | 0.00 | 96 | 1019.6 |